Location: Newark
(49.1939°N, 0.8136°E)
Time: 05:34:21
(UTC+00:00)

Envisat - Pass Details

Date: 21 November 2019
Orbit: 764 x 766 km, 98.1° (Epoch: 15 December)

Event Time Altitude Azimuth Distance (km) Brightness Sun altitude
Rises 19:23:02 0° 216° (SW) 3,223 6.6 -31.3°
Reaches altitude 10° 19:26:26 10° 241° (WSW) 2,303 6.1 -31.8°
Maximum altitude 19:29:09 14° 273° (W) 2,014 5.9 -32.3°
Drops below altitude 10° 19:31:53 10° 306° (NW) 2,312 6.1 -32.7°
Sets 19:35:20 0° 331° (NNW) 3,245 6.7 -33.3°
